| time (UTC) | temp F | wind direction | speed knots | gust knots | rain 1hr in | rain 24hr in | rain mn in | humidity % | barometer mb |
| 20260906210331 | 91 | 141 | 13.0 | 20.0 | 0.00 | 0.00 | 0.00 | 37 | 1014.9 |
| 20260906205832 | 91 | 133 | 10.4 | 16.5 | 0.00 | 0.00 | 0.00 | 38 | 1015.0 |
| 20260906205332 | 91 | 152 | 10.4 | 13.9 | 0.00 | 0.00 | 0.00 | 37 | 1015.3 |
| 20260906205052 | 91 | 159 | 7.8 | 16.5 | 0.00 | 0.00 | 0.00 | 38 | 1015.2 |
| 20260906204329 | 91 | 144 | 7.8 | 16.5 | 0.00 | 0.00 | 0.00 | 39 | 1015.3 |
| 20260906203826 | 90 | 113 | 7.8 | 18.2 | 0.00 | 0.00 | 0.00 | 40 | 1015.3 |
| 20260906203323 | 90 | 134 | 10.4 | 18.2 | 0.00 | 0.00 | 0.00 | 40 | 1015.5 |
| 20260906202823 | 90 | 141 | 10.4 | 18.2 | 0.00 | 0.00 | 0.00 | 39 | 1015.5 |
| 20260906202324 | 90 | 157 | 13.0 | 18.2 | 0.00 | 0.00 | 0.00 | 41 | 1015.6 |
| 20260906201823 | 90 | 110 | 13.9 | 18.2 | 0.00 | 0.00 | 0.00 | 40 | 1015.6 |
| 20260906201324 | 90 | 144 | 12.2 | 16.5 | 0.00 | 0.00 | 0.00 | 41 | 1015.6 |
| 20260906201045 | 90 | 179 | 8.7 | 20.0 | 0.00 | 0.00 | 0.00 | 41 | 1015.6 |
| 20260906200323 | 89 | 111 | 12.2 | 20.0 | 0.00 | 0.00 | 0.00 | 41 | 1015.8 |
| 20260906200043 | 89 | 148 | 7.8 | 15.6 | 0.00 | 0.00 | 0.00 | 41 | 1015.7 |
| 20260906195323 | 89 | 127 | 11.3 | 16.5 | 0.00 | 0.00 | 0.00 | 43 | 1015.8 |
| 20260906195042 | 89 | 166 | 9.6 | 17.4 | 0.00 | 0.00 | 0.00 | 44 | 1015.8 |
| 20260906193823 | 88 | 155 | 11.3 | 15.6 | 0.00 | 0.00 | 0.00 | 43 | 1016.1 |
| 20260906193544 | 88 | 192 | 9.6 | 15.6 | 0.00 | 0.00 | 0.00 | 44 | 1016.1 |
| 20260906191820 | 88 | 168 | 11.3 | 17.4 | 0.00 | 0.00 | 0.00 | 45 | 1016.2 |
| 20260906191542 | 87 | 175 | 8.7 | 14.8 | 0.00 | 0.00 | 0.00 | 45 | 1016.2 |
| 20260906190822 | 87 | 176 | 7.8 | 16.5 | 0.00 | 0.00 | 0.00 | 46 | 1016.3 |
| 20260906185822 | 87 | 180 | 9.6 | 13.9 | 0.00 | 0.00 | 0.00 | 45 | 1016.4 |
| 20260906185320 | 87 | 131 | 9.6 | 19.1 | 0.00 | 0.00 | 0.00 | 47 | 1016.4 |
| 20260906184820 | 86 | 196 | 10.4 | 19.1 | 0.00 | 0.00 | 0.00 | 46 | 1016.4 |
| 20260906184320 | 86 | 148 | 5.2 | 19.1 | 0.00 | 0.00 | 0.00 | 47 | 1016.5 |
| 20260906183822 | 86 | 186 | 13.0 | 19.1 | 0.00 | 0.00 | 0.00 | 48 | 1016.7 |
| 20260906183321 | 86 | 166 | 12.2 | 17.4 | 0.00 | 0.00 | 0.00 | 48 | 1016.7 |
| 20260906182819 | 85 | 151 | 7.8 | 17.4 | 0.00 | 0.00 | 0.00 | 49 | 1016.8 |
| 20260906182321 | 85 | 175 | 9.6 | 14.8 | 0.00 | 0.00 | 0.00 | 49 | 1016.9 |
| 20260906181820 | 85 | 161 | 10.4 | 20.9 | 0.00 | 0.00 | 0.00 | 50 | 1017.1 |
| 20260906181319 | 84 | 197 | 12.2 | 20.9 | 0.00 | 0.00 | 0.00 | 51 | 1017.2 |
| 20260906180820 | 84 | 192 | 9.6 | 17.4 | 0.00 | 0.00 | 0.00 | 51 | 1017.3 |
| 20260906180320 | 83 | 169 | 11.3 | 17.4 | 0.00 | 0.00 | 0.00 | 53 | 1017.3 |
| 20260906175820 | 83 | 144 | 9.6 | 17.4 | 0.00 | 0.00 | 0.00 | 54 | 1017.5 |
| 20260906175537 | 83 | 157 | 11.3 | 17.4 | 0.00 | 0.00 | 0.00 | 53 | 1017.6 |
| 20260906174819 | 82 | 190 | 9.6 | 17.4 | 0.00 | 0.00 | 0.00 | 54 | 1017.7 |
| 20260906174319 | 82 | 202 | 6.1 | 15.6 | 0.00 | 0.00 | 0.00 | 55 | 1017.9 |
| 20260906173820 | 82 | 158 | 8.7 | 17.4 | 0.00 | 0.00 | 0.00 | 56 | 1018.1 |
| 20260906173318 | 82 | 192 | 7.8 | 17.4 | 0.00 | 0.00 | 0.00 | 55 | 1018.1 |
| 20260906172820 | 82 | 171 | 7.8 | 13.9 | 0.00 | 0.00 | 0.00 | 56 | 1018.1 |
| 20260906172319 | 81 | 157 | 9.6 | 16.5 | 0.00 | 0.00 | 0.00 | 57 | 1018.3 |
| 20260906171819 | 80 | 154 | 12.2 | 16.5 | 0.00 | 0.00 | 0.00 | 57 | 1018.4 |
| 20260906171320 | 80 | 158 | 8.7 | 15.6 | 0.00 | 0.00 | 0.00 | 60 | 1018.5 |
| 20260906170818 | 79 | 151 | 8.7 | 16.5 | 0.00 | 0.00 | 0.00 | 61 | 1018.5 |
| 20260906170318 | 78 | 130 | 12.2 | 16.5 | 0.00 | 0.00 | 0.00 | 61 | 1018.4 |
| 20260906165818 | 78 | 152 | 10.4 | 17.4 | 0.00 | 0.00 | 0.00 | 62 | 1018.4 |
| 20260906165317 | 77 | 157 | 9.6 | 17.4 | 0.00 | 0.00 | 0.00 | 64 | 1018.4 |
| 20260906164817 | 77 | 151 | 9.6 | 15.6 | 0.00 | 0.00 | 0.00 | 64 | 1018.3 |
| 20260906164318 | 76 | 131 | 8.7 | 15.6 | 0.00 | 0.00 | 0.00 | 66 | 1018.6 |
| 20260906164041 | 75 | 135 | 8.7 | 14.8 | 0.00 | 0.00 | 0.00 | 68 | 1018.6 |
| 20260906163317 | 75 | 130 | 9.6 | 14.8 | 0.00 | 0.00 | 0.00 | 68 | 1018.7 |
| 20260906162819 | 74 | 123 | 8.7 | 13.9 | 0.00 | 0.00 | 0.00 | 69 | 1018.6 |
| 20260906162540 | 74 | 109 | 9.6 | 13.9 | 0.00 | 0.00 | 0.00 | 70 | 1018.7 |
| 20260906161818 | 74 | 147 | 10.4 | 15.6 | 0.00 | 0.00 | 0.00 | 71 | 1018.7 |
| 20260906161318 | 73 | 117 | 9.6 | 15.6 | 0.00 | 0.00 | 0.00 | 73 | 1018.7 |
| 20260906160317 | 72 | 144 | 10.4 | 14.8 | 0.00 | 0.00 | 0.00 | 74 | 1018.8 |
| 20260906155816 | 72 | 128 | 9.6 | 13.9 | 0.00 | 0.00 | 0.00 | 74 | 1018.8 |
| 20260906155543 | 71 | 128 | 9.6 | 13.9 | 0.00 | 0.00 | 0.00 | 75 | 1018.8 |
| 20260906154817 | 71 | 137 | 9.6 | 14.8 | 0.00 | 0.00 | 0.00 | 75 | 1018.7 |
| 20260906154316 | 71 | 123 | 10.4 | 14.8 | 0.00 | 0.00 | 0.00 | 76 | 1018.7 |
| 20260906153816 | 71 | 127 | 9.6 | 13.0 | 0.00 | 0.00 | 0.00 | 77 | 1018.7 |
| 20260906153539 | 70 | 134 | 7.0 | 13.0 | 0.00 | 0.00 | 0.00 | 77 | 1018.7 |
| 20260906152816 | 70 | 121 | 9.6 | 13.0 | 0.00 | 0.00 | 0.00 | 78 | 1018.7 |
| 20260906152315 | 70 | 113 | 6.1 | 10.4 | 0.00 | 0.00 | 0.00 | 79 | 1018.6 |
| 20260906151815 | 69 | 161 | 7.0 | 12.2 | 0.00 | 0.00 | 0.00 | 79 | 1018.5 |
| 20260906151316 | 69 | 123 | 5.2 | 13.9 | 0.00 | 0.00 | 0.00 | 79 | 1018.6 |
| 20260906151037 | 69 | 133 | 7.0 | 13.9 | 0.00 | 0.00 | 0.00 | 79 | 1018.4 |
| 20260906150315 | 69 | 147 | 7.0 | 13.9 | 0.00 | 0.00 | 0.00 | 80 | 1018.6 |
| 20260906145816 | 69 | 124 | 10.4 | 13.9 | 0.00 | 0.00 | 0.00 | 80 | 1018.3 |
| 20260906145314 | 68 | 151 | 8.7 | 14.8 | 0.00 | 0.00 | 0.00 | 82 | 1018.3 |
| 20260906144816 | 68 | 128 | 11.3 | 16.5 | 0.00 | 0.00 | 0.00 | 82 | 1018.3 |
| 20260906144315 | 67 | 142 | 9.6 | 16.5 | 0.00 | 0.00 | 0.00 | 84 | 1018.0 |
| 20260906143814 | 67 | 131 | 12.2 | 16.5 | 0.00 | 0.00 | 0.00 | 85 | 1018.1 |
| 20260906143314 | 66 | 142 | 13.0 | 15.6 | 0.00 | 0.00 | 0.00 | 85 | 1018.3 |
| 20260906142814 | 66 | 172 | 8.7 | 13.0 | 0.00 | 0.00 | 0.00 | 86 | 1018.0 |
| 20260906142310 | 65 | 131 | 9.6 | 15.6 | 0.00 | 0.00 | 0.00 | 86 | 1018.1 |
| 20260906141811 | 65 | 118 | 10.4 | 15.6 | 0.00 | 0.00 | 0.00 | 86 | 1018.1 |
| 20260906141532 | 65 | 127 | 11.3 | 13.0 | 0.00 | 0.00 | 0.00 | 86 | 1018.3 |
| 20260906141030 | 65 | 123 | 8.7 | 14.8 | 0.00 | 0.00 | 0.00 | 87 | 1018.3 |
| 20260906140311 | 65 | 141 | 10.4 | 14.8 | 0.00 | 0.00 | 0.00 | 88 | 1018.3 |
| 20260906135811 | 64 | 120 | 11.3 | 15.6 | 0.00 | 0.00 | 0.00 | 89 | 1018.4 |
| 20260906134807 | 63 | 106 | 10.4 | 13.0 | 0.00 | 0.00 | 0.00 | 90 | 1018.4 |
| 20260906134308 | 63 | 104 | 9.6 | 13.9 | 0.00 | 0.00 | 0.00 | 90 | 1018.5 |
| 20260906133808 | 62 | 102 | 7.0 | 13.9 | 0.00 | 0.00 | 0.00 | 90 | 1018.6 |
| 20260906133308 | 62 | 117 | 9.6 | 13.0 | 0.00 | 0.00 | 0.00 | 90 | 1018.6 |
| 20260906132807 | 62 | 110 | 6.1 | 10.4 | 0.00 | 0.00 | 0.00 | 90 | 1018.6 |
| 20260906132306 | 62 | 106 | 6.1 | 9.6 | 0.00 | 0.00 | 0.00 | 89 | 1018.5 |
| 20260906131804 | 62 | 114 | 5.2 | 9.6 | 0.00 | 0.00 | 0.00 | 89 | 1018.4 |
| 20260906131303 | 61 | 111 | 6.1 | 9.6 | 0.00 | 0.00 | 0.00 | 89 | 1018.3 |
| 20260906131025 | 61 | 97 | 6.1 | 9.6 | 0.00 | 0.00 | 0.00 | 89 | 1018.4 |
| 20260906130253 | 61 | 103 | 5.2 | 8.7 | 0.00 | 0.00 | 0.00 | 89 | 1018.3 |
| 20260906125747 | 61 | 111 | 5.2 | 10.4 | 0.00 | 0.00 | 0.00 | 88 | 1018.3 |
| 20260906125505 | 61 | 114 | 6.1 | 10.4 | 0.00 | 0.00 | 0.00 | 88 | 1018.1 |
| 20260906124747 | 61 | 109 | 7.0 | 9.6 | 0.00 | 0.00 | 0.00 | 88 | 1018.1 |
| 20260906124244 | 61 | 104 | 7.8 | 11.3 | 0.00 | 0.00 | 0.00 | 88 | 1018.0 |
| 20260906123744 | 61 | 107 | 7.0 | 11.3 | 0.00 | 0.00 | 0.00 | 88 | 1018.0 |
| 20260906123240 | 61 | 109 | 6.1 | 11.3 | 0.00 | 0.00 | 0.00 | 87 | 1017.9 |
| 20260906122959 | 62 | 97 | 7.0 | 11.3 | 0.00 | 0.00 | 0.00 | 87 | 1017.9 |
| 20260906122240 | 62 | 97 | 6.1 | 10.4 | 0.00 | 0.00 | 0.00 | 86 | 1017.8 |
| 20260906122006 | 62 | 106 | 7.8 | 10.4 | 0.00 | 0.00 | 0.00 | 86 | 1017.7 |
| 20260906121241 | 62 | 99 | 7.0 | 9.6 | 0.00 | 0.00 | 0.00 | 86 | 1017.7 |
| 20260906120740 | 62 | 93 | 6.1 | 8.7 | 0.00 | 0.00 | 0.00 | 85 | 1017.6 |
| 20260906115738 | 62 | 110 | 6.1 | 8.7 | 0.00 | 0.00 | 0.00 | 84 | 1017.7 |
| 20260906115238 | 62 | 104 | 6.1 | 7.8 | 0.00 | 0.00 | 0.00 | 84 | 1017.7 |
| 20260906114738 | 62 | 117 | 3.5 | 6.1 | 0.00 | 0.00 | 0.00 | 84 | 1017.7 |
| 20260906114234 | 62 | 96 | 3.5 | 7.8 | 0.00 | 0.00 | 0.00 | 84 | 1017.7 |
| 20260906113733 | 62 | 106 | 5.2 | 8.7 | 0.00 | 0.00 | 0.00 | 84 | 1017.6 |
| 20260906113232 | 62 | 90 | 5.2 | 8.7 | 0.00 | 0.00 | 0.00 | 83 | 1017.6 |
| 20260906112732 | 62 | 96 | 6.1 | 8.7 | 0.00 | 0.00 | 0.00 | 83 | 1017.7 |
| 20260906112232 | 63 | 96 | 5.2 | 7.8 | 0.00 | 0.00 | 0.00 | 83 | 1017.8 |
| 20260906111732 | 63 | 82 | 5.2 | 8.7 | 0.00 | 0.00 | 0.00 | 83 | 1017.8 |
| 20260906111230 | 63 | 87 | 5.2 | 8.7 | 0.00 | 0.00 | 0.00 | 83 | 1017.7 |
| 20260906110733 | 63 | 90 | 5.2 | 9.6 | 0.00 | 0.00 | 0.00 | 83 | 1017.7 |
| 20260906110232 | 63 | 96 | 7.0 | 10.4 | 0.00 | 0.00 | 0.00 | 83 | 1017.7 |
| 20260906105733 | 63 | 103 | 7.0 | 11.3 | 0.00 | 0.00 | 0.00 | 82 | 1017.7 |
| 20260906105231 | 63 | 99 | 8.7 | 12.2 | 0.00 | 0.00 | 0.00 | 82 | 1017.7 |
| 20260906104955 | 63 | 90 | 7.0 | 12.2 | 0.00 | 0.00 | 0.00 | 82 | 1017.8 |
| 20260906104232 | 63 | 109 | 7.8 | 12.2 | 0.00 | 0.00 | 0.00 | 81 | 1017.8 |
| 20260906103731 | 63 | 104 | 6.1 | 13.0 | 0.00 | 0.00 | 0.00 | 81 | 1017.7 |
| 20260906103231 | 63 | 109 | 9.6 | 14.8 | 0.00 | 0.00 | 0.00 | 81 | 1017.6 |
| 20260906102731 | 63 | 90 | 10.4 | 14.8 | 0.00 | 0.00 | 0.00 | 80 | 1017.6 |
| 20260906102231 | 63 | 89 | 9.6 | 14.8 | 0.00 | 0.00 | 0.00 | 80 | 1017.5 |
| 20260906101731 | 64 | 113 | 9.6 | 14.8 | 0.00 | 0.00 | 0.00 | 79 | 1017.6 |
| 20260906101232 | 64 | 102 | 10.4 | 14.8 | 0.00 | 0.00 | 0.00 | 79 | 1017.6 |
| 20260906100732 | 64 | 111 | 9.6 | 13.0 | 0.00 | 0.00 | 0.00 | 79 | 1017.6 |
| 20260906100233 | 64 | 90 | 7.8 | 12.2 | 0.00 | 0.00 | 0.00 | 78 | 1017.5 |
| 20260906095731 | 64 | 99 | 7.8 | 12.2 | 0.00 | 0.00 | 0.00 | 78 | 1017.6 |
| 20260906095231 | 64 | 94 | 7.8 | 12.2 | 0.00 | 0.00 | 0.00 | 77 | 1017.5 |
| 20260906094731 | 64 | 120 | 7.8 | 13.0 | 0.00 | 0.00 | 0.00 | 77 | 1017.6 |
| 20260906094225 | 64 | 96 | 8.7 | 13.0 | 0.00 | 0.00 | 0.00 | 77 | 1017.6 |
| 20260906093724 | 64 | 89 | 9.6 | 13.0 | 0.00 | 0.00 | 0.00 | 76 | 1017.7 |
| 20260906093226 | 64 | 96 | 7.0 | 13.0 | 0.00 | 0.00 | 0.00 | 75 | 1017.6 |
| 20260906092725 | 65 | 99 | 9.6 | 16.5 | 0.00 | 0.00 | 0.00 | 75 | 1017.5 |
| 20260906092225 | 65 | 97 | 12.2 | 16.5 | 0.00 | 0.00 | 0.00 | 75 | 1017.3 |
| 20260906091719 | 65 | 85 | 10.4 | 14.8 | 0.00 | 0.00 | 0.00 | 74 | 1017.2 |
| 20260906091218 | 65 | 76 | 8.7 | 15.6 | 0.00 | 0.00 | 0.00 | 74 | 1017.2 |
| 20260906090719 | 65 | 86 | 11.3 | 16.5 | 0.00 | 0.00 | 0.00 | 74 | 1017.2 |
| 20260906090220 | 65 | 97 | 10.4 | 16.5 | 0.00 | 0.00 | 0.00 | 74 | 1017.2 |
| 20260906085717 | 65 | 89 | 9.6 | 16.5 | 0.00 | 0.00 | 0.00 | 75 | 1017.2 |
| 20260906085214 | 65 | 78 | 13.0 | 20.0 | 0.00 | 0.00 | 0.00 | 75 | 1017.1 |
| 20260906084714 | 65 | 90 | 14.8 | 20.0 | 0.00 | 0.00 | 0.00 | 75 | 1017.2 |
| 20260906084431 | 64 | 69 | 14.8 | 19.1 | 0.00 | 0.00 | 0.00 | 76 | 1017.2 |
| 20260906083708 | 64 | 82 | 12.2 | 22.6 | 0.00 | 0.00 | 0.00 | 77 | 1017.3 |
| 20260906083206 | 64 | 87 | 12.2 | 22.6 | 0.00 | 0.00 | 0.00 | 78 | 1017.5 |
| 20260906082706 | 64 | 78 | 15.6 | 19.1 | 0.00 | 0.00 | 0.00 | 79 | 1017.5 |
| 20260906082205 | 64 | 72 | 15.6 | 20.9 | 0.00 | 0.00 | 0.00 | 81 | 1017.3 |
| 20260906081705 | 64 | 78 | 16.5 | 20.9 | 0.00 | 0.00 | 0.00 | 81 | 1017.5 |
| 20260906081205 | 64 | 66 | 13.0 | 17.4 | 0.00 | 0.00 | 0.00 | 82 | 1017.6 |
| 20260906080707 | 64 | 68 | 13.0 | 18.2 | 0.00 | 0.00 | 0.00 | 82 | 1017.7 |
| 20260906080206 | 64 | 59 | 12.2 | 18.2 | 0.00 | 0.00 | 0.00 | 82 | 1017.8 |
| 20260906075705 | 64 | 63 | 11.3 | 16.5 | 0.00 | 0.00 | 0.00 | 83 | 1017.9 |
| 20260906075205 | 64 | 80 | 10.4 | 18.2 | 0.00 | 0.00 | 0.00 | 84 | 1017.9 |
| 20260906074706 | 64 | 75 | 10.4 | 18.2 | 0.00 | 0.00 | 0.00 | 85 | 1017.8 |
| 20260906073706 | 65 | 68 | 12.2 | 16.5 | 0.00 | 0.00 | 0.00 | 85 | 1017.8 |
| 20260906073204 | 65 | 78 | 12.2 | 17.4 | 0.00 | 0.00 | 0.00 | 85 | 1017.7 |
| 20260906072705 | 65 | 79 | 13.0 | 17.4 | 0.00 | 0.00 | 0.00 | 84 | 1017.7 |
| 20260906072434 | 65 | 76 | 13.0 | 20.0 | 0.00 | 0.00 | 0.00 | 83 | 1017.8 |
| 20260906071704 | 65 | 71 | 12.2 | 20.0 | 0.00 | 0.00 | 0.00 | 82 | 1017.8 |
| 20260906071204 | 66 | 71 | 10.4 | 15.6 | 0.00 | 0.00 | 0.00 | 82 | 1017.8 |
| 20260906070704 | 66 | 72 | 9.6 | 15.6 | 0.00 | 0.00 | 0.00 | 81 | 1017.9 |
| 20260906070431 | 66 | 37 | 7.8 | 14.8 | 0.00 | 0.00 | 0.00 | 81 | 1017.9 |
| 20260906065706 | 66 | 63 | 7.8 | 14.8 | 0.00 | 0.00 | 0.00 | 81 | 1017.8 |
| 20260906065203 | 66 | 62 | 8.7 | 13.9 | 0.00 | 0.00 | 0.00 | 81 | 1017.7 |
| 20260906064704 | 66 | 51 | 6.1 | 10.4 | 0.00 | 0.00 | 0.00 | 81 | 1017.7 |
| 20260906064201 | 66 | 54 | 6.1 | 11.3 | 0.00 | 0.00 | 0.00 | 81 | 1017.8 |
| 20260906063700 | 66 | 44 | 6.1 | 13.0 | 0.00 | 0.00 | 0.00 | 81 | 1017.7 |
| 20260906063203 | 66 | 54 | 8.7 | 13.0 | 0.00 | 0.00 | 0.00 | 80 | 1017.7 |
| 20260906062701 | 66 | 24 | 7.8 | 12.2 | 0.00 | 0.00 | 0.00 | 80 | 1017.9 |
| 20260906062159 | 66 | 6 | 7.0 | 13.9 | 0.00 | 0.00 | 0.00 | 79 | 1017.9 |
| 20260906061655 | 67 | 0 | 9.6 | 13.9 | 0.00 | 0.00 | 0.00 | 78 | 1018.0 |
| 20260906061155 | 67 | 90 | 5.2 | 15.6 | 0.00 | 0.00 | 0.00 | 77 | 1017.9 |
| 20260906060654 | 67 | 31 | 8.7 | 15.6 | 0.00 | 0.00 | 0.00 | 76 | 1018.0 |
| 20260906060155 | 68 | 34 | 7.0 | 13.9 | 0.00 | 0.00 | 0.00 | 76 | 1018.0 |
| 20260906055652 | 68 | 10 | 8.7 | 13.0 | 0.00 | 0.00 | 0.00 | 75 | 1018.0 |
| 20260906055146 | 69 | 27 | 10.4 | 17.4 | 0.00 | 0.00 | 0.00 | 73 | 1018.0 |
| 20260906054646 | 69 | 10 | 7.8 | 17.4 | 0.00 | 0.00 | 0.00 | 72 | 1017.8 |
| 20260906054143 | 69 | 20 | 7.0 | 15.6 | 0.00 | 0.00 | 0.00 | 71 | 1017.9 |
| 20260906053642 | 70 | 0 | 7.0 | 12.2 | 0.00 | 0.00 | 0.00 | 70 | 1017.9 |
| 20260906053143 | 70 | 17 | 7.0 | 13.0 | 0.00 | 0.00 | 0.00 | 70 | 1017.9 |
| 20260906052640 | 71 | 27 | 6.1 | 11.3 | 0.00 | 0.00 | 0.00 | 70 | 1017.8 |
| 20260906052140 | 71 | 35 | 5.2 | 15.6 | 0.00 | 0.00 | 0.00 | 69 | 1017.9 |
| 20260906051638 | 72 | 358 | 8.7 | 15.6 | 0.00 | 0.00 | 0.00 | 67 | 1017.9 |
| 20260906051137 | 73 | 348 | 10.4 | 14.8 | 0.00 | 0.00 | 0.00 | 65 | 1017.9 |
| 20260906050637 | 75 | 305 | 7.8 | 16.5 | 0.00 | 0.00 | 0.00 | 63 | 1017.8 |
| 20260906050133 | 76 | 323 | 9.6 | 16.5 | 0.00 | 0.00 | 0.00 | 63 | 1017.6 |
| 20260906045632 | 74 | 223 | 5.2 | 14.8 | 0.00 | 0.00 | 0.00 | 68 | 1017.2 |
| 20260906044632 | 72 | 44 | 5.2 | 13.9 | 0.00 | 0.00 | 0.00 | 67 | 1017.1 |
| 20260906044356 | 72 | 341 | 7.8 | 13.9 | 0.00 | 0.00 | 0.00 | 68 | 1017.0 |
| 20260906043625 | 73 | 340 | 5.2 | 6.1 | 0.00 | 0.00 | 0.00 | 68 | 1016.9 |
| 20260906043344 | 74 | 62 | 1.7 | 4.3 | 0.00 | 0.00 | 0.00 | 67 | 1016.5 |
| 20260906042847 | 74 | 117 | 3.5 | 4.3 | 0.00 | 0.00 | 0.00 | 67 | 1016.4 |
| 20260906042116 | 74 | 109 | 3.5 | 5.2 | 0.00 | 0.00 | 0.00 | 67 | 1016.3 |
| 20260906041616 | 74 | 93 | 4.3 | 7.8 | 0.00 | 0.00 | 0.00 | 66 | 1016.3 |
| 20260906041110 | 74 | 140 | 4.3 | 7.8 | 0.00 | 0.00 | 0.00 | 65 | 1016.2 |
| 20260906040610 | 75 | 142 | 5.2 | 9.6 | 0.00 | 0.00 | 0.00 | 64 | 1016.1 |
| 20260906040107 | 75 | 145 | 7.0 | 9.6 | 0.00 | 0.00 | 0.00 | 64 | 1016.1 |
| 20260906035607 | 75 | 135 | 6.1 | 9.6 | 0.00 | 0.00 | 0.00 | 63 | 1016.1 |
| 20260906035110 | 76 | 131 | 7.0 | 9.6 | 0.00 | 0.00 | 0.00 | 62 | 1016.1 |
| 20260906034606 | 76 | 148 | 7.0 | 8.7 | 0.00 | 0.00 | 0.00 | 61 | 1016.1 |
| 20260906034104 | 76 | 135 | 5.2 | 7.8 | 0.00 | 0.00 | 0.00 | 60 | 1016.2 |
| 20260906033832 | 76 | 116 | 5.2 | 7.8 | 0.00 | 0.00 | 0.00 | 59 | 1016.2 |
| 20260906033103 | 77 | 120 | 3.5 | 7.8 | 0.00 | 0.00 | 0.00 | 59 | 1016.1 |
| 20260906032604 | 77 | 104 | 5.2 | 7.8 | 0.00 | 0.00 | 0.00 | 58 | 1016.1 |
| 20260906032104 | 77 | 128 | 4.3 | 8.7 | 0.00 | 0.00 | 0.00 | 58 | 1016.1 |
| 20260906031604 | 77 | 110 | 5.2 | 9.6 | 0.00 | 0.00 | 0.00 | 57 | 1016.0 |
| 20260906031102 | 78 | 117 | 7.0 | 10.4 | 0.00 | 0.00 | 0.00 | 57 | 1015.8 |
| 20260906030604 | 78 | 118 | 7.0 | 13.0 | 0.00 | 0.00 | 0.00 | 56 | 1015.6 |
| 20260906030331 | 78 | 127 | 7.8 | 13.0 | 0.00 | 0.00 | 0.00 | 56 | 1015.5 |
| 20260906025604 | 78 | 124 | 8.7 | 11.3 | 0.00 | 0.00 | 0.00 | 56 | 1015.5 |
| 20260906025103 | 78 | 142 | 7.8 | 11.3 | 0.00 | 0.00 | 0.00 | 55 | 1015.4 |
| 20260906024602 | 79 | 118 | 8.7 | 12.2 | 0.00 | 0.00 | 0.00 | 55 | 1015.4 |
| 20260906024103 | 79 | 116 | 8.7 | 15.6 | 0.00 | 0.00 | 0.00 | 54 | 1015.3 |
| 20260906023602 | 79 | 117 | 9.6 | 15.6 | 0.00 | 0.00 | 0.00 | 54 | 1015.3 |
| 20260906023102 | 80 | 144 | 9.6 | 13.9 | 0.00 | 0.00 | 0.00 | 53 | 1015.3 |
| 20260906022603 | 80 | 114 | 9.6 | 13.9 | 0.00 | 0.00 | 0.00 | 53 | 1015.3 |
| 20260906022103 | 80 | 109 | 10.4 | 13.0 | 0.00 | 0.00 | 0.00 | 52 | 1015.3 |
| 20260906021604 | 80 | 116 | 10.4 | 14.8 | 0.00 | 0.00 | 0.00 | 52 | 1015.2 |
| 20260906021104 | 81 | 113 | 11.3 | 15.6 | 0.00 | 0.00 | 0.00 | 51 | 1015.0 |
| 20260906020601 | 81 | 138 | 11.3 | 16.5 | 0.00 | 0.00 | 0.00 | 50 | 1014.9 |
| 20260906020320 | 82 | 111 | 12.2 | 16.5 | 0.00 | 0.00 | 0.00 | 50 | 1014.9 |
| 20260906015558 | 82 | 117 | 12.2 | 17.4 | 0.00 | 0.00 | 0.00 | 50 | 1014.8 |
| 20260906015059 | 82 | 116 | 12.2 | 17.4 | 0.00 | 0.00 | 0.00 | 49 | 1014.8 |
| 20260906014557 | 83 | 130 | 13.0 | 17.4 | 0.00 | 0.00 | 0.00 | 48 | 1014.8 |
| 20260906014100 | 83 | 117 | 13.0 | 17.4 | 0.00 | 0.00 | 0.00 | 48 | 1014.8 |
| 20260906013558 | 83 | 118 | 13.0 | 16.5 | 0.00 | 0.00 | 0.00 | 47 | 1014.9 |
| 20260906013057 | 84 | 114 | 12.2 | 17.4 | 0.00 | 0.00 | 0.00 | 47 | 1015.0 |
| 20260906012556 | 84 | 104 | 13.0 | 17.4 | 0.00 | 0.00 | 0.00 | 45 | 1014.9 |
| 20260906012057 | 85 | 107 | 10.4 | 17.4 | 0.00 | 0.00 | 0.00 | 44 | 1014.9 |
| 20260906011817 | 85 | 109 | 12.2 | 17.4 | 0.00 | 0.00 | 0.00 | 43 | 1014.9 |
| 20260906011058 | 86 | 109 | 13.0 | 17.4 | 0.00 | 0.00 | 0.00 | 43 | 1014.8 |
| 20260906010558 | 86 | 113 | 13.0 | 18.2 | 0.00 | 0.00 | 0.00 | 42 | 1014.8 |
| 20260906010319 | 87 | 114 | 13.0 | 18.2 | 0.00 | 0.00 | 0.00 | 42 | 1014.7 |
| 20260906005821 | 87 | 121 | 13.0 | 17.4 | 0.00 | 0.00 | 0.00 | 42 | 1014.7 |
| 20260906005058 | 87 | 83 | 12.2 | 18.2 | 0.00 | 0.00 | 0.00 | 42 | 1014.7 |
| 20260906004820 | 87 | 86 | 10.4 | 18.2 | 0.00 | 0.00 | 0.00 | 43 | 1014.8 |
| 20260906004055 | 87 | 90 | 10.4 | 16.5 | 0.00 | 0.00 | 0.00 | 43 | 1014.8 |
| 20260906003555 | 87 | 120 | 10.4 | 16.5 | 0.00 | 0.00 | 0.00 | 43 | 1014.7 |
| 20260906003057 | 87 | 114 | 11.3 | 16.5 | 0.00 | 0.00 | 0.00 | 43 | 1014.7 |
| 20260906002556 | 87 | 110 | 11.3 | 15.6 | 0.00 | 0.00 | 0.00 | 43 | 1014.6 |
| 20260906002055 | 87 | 97 | 11.3 | 15.6 | 0.00 | 0.00 | 0.00 | 43 | 1014.6 |
| 20260906001547 | 88 | 104 | 12.2 | 16.5 | 0.00 | 0.00 | 0.00 | 42 | 1014.6 |
| 20260906001047 | 88 | 118 | 12.2 | 17.4 | 0.00 | 0.00 | 0.00 | 42 | 1014.5 |
| 20260906000549 | 87 | 121 | 13.0 | 17.4 | 0.00 | 0.00 | 0.00 | 42 | 1014.5 |
| 20260906000045 | 87 | 144 | 11.3 | 19.1 | 0.00 | 0.00 | 0.00 | 42 | 1014.4 |
| 20260905235544 | 87 | 116 | 13.0 | 19.1 | 0.00 | 0.00 | 0.00 | 43 | 1014.1 |
| 20260905235042 | 87 | 121 | 11.3 | 15.6 | 0.00 | 0.00 | 0.00 | 43 | 1014.0 |
| 20260905234540 | 87 | 144 | 12.2 | 17.4 | 0.00 | 0.00 | 0.00 | 41 | 1013.9 |
| 20260905234037 | 87 | 147 | 12.2 | 17.4 | 0.00 | 0.00 | 0.00 | 39 | 1013.9 |
| 20260905233536 | 87 | 144 | 11.3 | 17.4 | 0.00 | 0.00 | 0.00 | 37 | 1013.9 |
| 20260905233036 | 88 | 121 | 11.3 | 19.1 | 0.00 | 0.00 | 0.00 | 35 | 1013.8 |
| 20260905232536 | 89 | 121 | 10.4 | 19.1 | 0.00 | 0.00 | 0.00 | 34 | 1013.8 |
| 20260905232033 | 89 | 127 | 13.0 | 18.2 | 0.00 | 0.00 | 0.00 | 34 | 1013.9 |
| 20260905231533 | 89 | 138 | 10.4 | 16.5 | 0.00 | 0.00 | 0.00 | 34 | 1013.9 |
| 20260905231259 | 89 | 145 | 10.4 | 16.5 | 0.00 | 0.00 | 0.00 | 34 | 1014.0 |
| 20260905230533 | 88 | 157 | 10.4 | 16.5 | 0.00 | 0.00 | 0.00 | 34 | 1014.1 |
| 20260905230033 | 88 | 169 | 10.4 | 17.4 | 0.00 | 0.00 | 0.00 | 34 | 1014.0 |
| 20260905225532 | 88 | 147 | 12.2 | 18.2 | 0.00 | 0.00 | 0.00 | 33 | 1013.9 |
| 20260905225031 | 87 | 121 | 12.2 | 26.1 | 0.00 | 0.00 | 0.00 | 33 | 1014.0 |
| 20260905224532 | 86 | 123 | 16.5 | 28.7 | 0.00 | 0.00 | 0.00 | 34 | 1014.0 |
| 20260905224032 | 85 | 114 | 20.9 | 28.7 | 0.00 | 0.00 | 0.00 | 36 | 1014.1 |
| 20260905223531 | 84 | 127 | 21.7 | 28.7 | 0.00 | 0.00 | 0.00 | 40 | 1014.0 |
| 20260905223031 | 83 | 131 | 20.9 | 28.7 | 0.00 | 0.00 | 0.00 | 40 | 1014.1 |
| 20260905222532 | 84 | 133 | 14.8 | 29.5 | 0.00 | 0.00 | 0.00 | 41 | 1014.4 |
| 20260905222250 | 86 | 159 | 16.5 | 29.5 | 0.00 | 0.00 | 0.00 | 39 | 1014.2 |
| 20260905221530 | 89 | 145 | 17.4 | 28.7 | 0.00 | 0.00 | 0.00 | 35 | 1014.1 |
| 20260905221032 | 90 | 131 | 16.5 | 23.5 | 0.00 | 0.00 | 0.00 | 35 | 1014.0 |
| 20260905220533 | 88 | 141 | 13.9 | 22.6 | 0.00 | 0.00 | 0.00 | 38 | 1013.9 |
| 20260905220031 | 88 | 131 | 10.4 | 22.6 | 0.00 | 0.00 | 0.00 | 42 | 1014.0 |
| 20260905215531 | 87 | 138 | 7.8 | 14.8 | 0.00 | 0.00 | 0.00 | 44 | 1014.0 |
| 20260905215032 | 86 | 135 | 9.6 | 14.8 | 0.00 | 0.00 | 0.00 | 44 | 1014.1 |
| 20260905214530 | 86 | 124 | 7.8 | 13.0 | 0.00 | 0.00 | 0.00 | 45 | 1014.2 |
| 20260905214032 | 87 | 125 | 7.8 | 10.4 | 0.00 | 0.00 | 0.00 | 44 | 1014.1 |
| 20260905213532 | 86 | 107 | 6.1 | 8.7 | 0.00 | 0.00 | 0.00 | 42 | 1014.2 |
| 20260905213033 | 86 | 106 | 7.0 | 13.0 | 0.00 | 0.00 | 0.00 | 44 | 1014.2 |
| 20260905212531 | 89 | 120 | 7.0 | 13.0 | 0.00 | 0.00 | 0.00 | 40 | 1014.4 |
| 20260905212033 | 91 | 138 | 7.0 | 14.8 | 0.00 | 0.00 | 0.00 | 34 | 1014.5 |
| 20260905211530 | 91 | 120 | 7.8 | 15.6 | 0.00 | 0.00 | 0.00 | 32 | 1014.5 |
| 20260905211028 | 91 | 120 | 7.8 | 15.6 | 0.00 | 0.00 | 0.00 | 32 | 1014.6 |
| 20260905210752 | 92 | 114 | 11.3 | 18.2 | 0.00 | 0.00 | 0.00 | 31 | 1014.6 |